Location: Blue Sky Observatory
(43.1153°N, 70.9036°W)
Time: 22:03:21
(UTC-04:00)

Daily predictions for brighter satellites

Satellite Brightness Start Highest point End
(mag) Time Altitude Azimuth Time Altitude Azimuth Time Altitude Azimuth
SPOT 5 4.0 20:35:53 10° SE 20:40:35 33° ENE 20:45:20 10° N
Meteor 1-27 Rocket 3.8 20:36:58 10° N 20:42:29 61° ENE 20:47:55 10° SSE
deb Chang Zheng 4 4.3 20:38:27 10° NNE 20:42:29 33° E 20:46:30 10° SSE
Timation 2 Rocket 4.5 20:37:27 10° NNW 20:43:09 43° NE 20:48:48 10° SE
Cosmos 1184 Rocket 3.9 20:41:35 10° SSE 20:44:25 26° E 20:47:15 10° NE
CZ-3C R/B 4.3 20:20:08 10° SW 20:47:58 22° SSW 20:55:52 10° SSE
ATLAS 5 CENTAUR R/B 3.9 20:44:52 10° NW 20:50:14 33° WSW 20:55:54 10° S
Abrixas 4.5 20:50:32 10° SSE 20:51:50 12° SE 20:52:48 11° ESE
Cosmos 2154 Rocket 4.0 20:46:18 10° S 20:52:25 62° E 20:58:32 10° NNE
H-2A R/B 4.2 20:49:56 10° SSW 20:53:22 36° W 20:56:51 10° NNW
Cosmos 1242 Rocket 3.7 20:50:57 10° NNE 20:54:10 28° ENE 20:57:10 11° SE
H-2A R/B 2.2 20:53:09 10° SSE 20:57:20 55° ENE 21:01:27 10° N
Cosmos 1782 3.6 20:55:18 10° NNW 20:59:16 54° W 21:03:12 10° S
Cosmos 1174 4.1 20:58:20 10° NW 21:01:24 42° WSW 21:04:13 10° S
YAOGAN 6 3.9 20:58:54 12° ESE 21:01:26 24° ENE 21:04:21 10° NNE
Cosmos 676 Rocket 4.2 20:56:27 10° NNW 21:01:40 75° WSW 21:06:52 10° SSE
Cosmos 1408 2.6 20:59:50 10° S 21:03:26 59° E 21:07:02 10° NNE
Cosmos 1954 Rocket 4.0 20:59:41 10° NNW 21:04:56 89° WSW 21:10:11 10° SSE
Okean 3 3.5 21:04:50 10° N 21:09:07 67° E 21:13:19 10° SSE
COS B Rocket 3.1 21:06:38 10° N 21:10:38 74° E 21:14:10 10° S
Cosmos 1833 Rocket 3.6 21:10:18 10° N 21:15:28 36° ENE 21:19:34 15° ESE
MetOp-A 4.4 21:10:51 12° SSE 21:15:42 56° ENE 21:20:56 10° N
Cosmos 1844 Rocket 4.0 21:14:49 10° SW 21:20:13 45° WNW 21:25:38 10° NNE
Cosmos 1825 2.3 21:16:34 10° S 21:20:22 81° W 21:24:13 10° N
Cosmos 1939 Rocket 3.2 21:16:32 10° S 21:20:23 64° W 21:24:19 10° NNW
Cosmos 1023 Rocket 4.4 21:15:53 10° NNW 21:21:01 86° ENE 21:25:29 14° SSE
Cosmos 1741 Rocket 4.1 21:16:17 10° NNW 21:21:29 63° ENE 21:25:30 17° SE
Cosmos 2278 Rocket 2.3 21:16:33 10° SSW 21:22:14 85° WNW 21:27:57 10° NNE
GPS 2-05 Rocket1 4.2 21:19:37 10° WSW 21:22:44 25° S 21:24:07 20° SSE
Okean 2 Rocket 3.0 21:28:45 10° S 21:33:10 85° E 21:37:35 10° N
Meteor 2-13 Rocket 4.4 21:29:48 10° S 21:35:57 80° E 21:42:08 10° N
Envisat 3.5 21:32:30 10° S 21:37:29 57° W 21:42:30 10° NNW
UNK 4.5 21:31:26 10° NNE 21:37:34 62° ESE 21:43:22 10° S
PSLV R/B 3.0 21:38:40 27° S 21:40:08 84° W 21:43:05 10° NNW
Cosmos 1782 Rocket 4.0 21:36:35 10° SSW 21:41:01 65° W 21:45:29 10° N
Cosmos 2082 Rocket 2.3 21:35:36 10° NNW 21:41:19 69° ENE 21:44:56 23° SE
Cosmos 614 Rocket 3.9 21:36:31 10° NNW 21:41:38 86° ENE 21:45:00 22° SSE
CZ-4 SHROUD 3.1 21:41:47 27° S 21:43:19 82° WSW 21:46:25 10° NNW
Intercosmos 25 2.8 21:43:01 15° S 21:45:50 90° NNW 21:49:01 10° N
SL-08 RB Rocket 4.1 21:43:28 25° SE 21:45:53 49° ENE 21:50:22 10° N
OAO 3 Rocket 4.2 21:42:48 10° SW 21:47:01 28° S 21:48:02 26° SSE
Cosmos 2218 Rocket 4.1 21:41:56 12° S 21:47:53 66° E 21:54:14 10° NNE
Cosmos 1420 Rocket 4.3 21:45:24 10° SSW 21:50:37 68° WNW 21:55:50 10° NNE
Cosmos 1812 3.7 21:47:46 10° NNE 21:51:13 30° ENE 21:52:04 27° E
APEX 3.8 21:47:15 10° SSW 21:51:15 74° WNW 21:56:36 10° NNE
DNEPR-1 R/B 4.4 21:47:42 10° NW 21:52:50 50° WSW 21:55:33 22° S
Meteor 1-14 Rocket 4.1 21:48:58 10° S 21:54:38 82° E 22:00:14 10° NNE
Cosmos 1975 Rocket 4.0 21:50:36 10° NNW 21:54:44 45° W 21:58:29 12° SSW
Cosmos 1140 Rocket 4.3 21:51:13 10° NNW 21:56:08 46° WSW 22:00:06 15° S
USA 234 4.1 21:51:32 10° ENE 21:56:37 24° SE 21:56:42 24° SE
Cosmos 1959 Rocket 4.4 21:53:08 13° S 21:58:42 80° E 22:04:49 10° N
Cosmos 2297 3.8 21:54:00 10° SSW 21:59:43 83° WNW 22:05:30 10° NNE
Cosmos 1727 Rocket 4.0 21:54:22 10° N 22:00:31 65° E 22:04:02 27° SSE
Meteor 2-8 Rocket 4.5 21:56:04 10° N 22:02:12 68° E 22:05:40 27° SSE
Terra 2.6 22:01:13 28° ESE 22:02:54 37° ENE 22:07:16 10° N
AVUM R/B 3.4 22:00:56 10° NNW 22:04:27 70° ENE 22:05:08 52° SE
NOAA 11 4.2 22:01:15 25° SSE 22:04:32 87° ENE 22:10:05 10° NNW
CZ-4B R/B 3.3 22:00:54 10° NNE 22:05:51 82° ESE 22:09:18 19° SSW
Cosmos 1536 Rocket 3.5 22:03:14 10° N 22:07:44 77° E 22:09:31 36° SSE
ISS -1.3 22:05:40 10° W 22:08:34 29° NNW 22:11:29 10° NE
DELTA 2 DEB (DPAF) 4.4 22:07:41 37° SE 22:09:12 56° ENE 22:13:35 10° N
H-2A R/B 2.3 22:11:12 33° SE 22:13:27 57° ENE 22:18:37 10° N
NOSS 8 (F) 4.4 22:11:48 15° SW 22:14:37 90° ENE 22:18:21 10° NE
BREEZE-M DEB (TANK) 3.7 22:13:48 10° NW 22:15:41 24° N 22:18:48 10° ENE
SPOT 5 4.4 22:14:02 12° SSW 22:18:31 35° W 22:23:26 10° NNW
Lacrosse 5 rocket 3.0 22:21:56 18° ENE 22:21:56 18° ENE 22:23:05 10° ENE
Spot 4 4.5 22:19:28 34° ESE 22:20:47 42° ENE 22:25:21 10° N
SL-8 Rocket 4.5 22:14:58 10° SSW 22:21:09 59° W 22:27:19 10° N
Cosmos 1339 Rocket 4.4 22:15:54 10° N 22:22:05 79° E 22:25:06 33° SSE
IGS 5A 3.7 22:25:17 47° ESE 22:25:55 52° ENE 22:29:58 10° N
USA 245 4.5 22:25:48 26° SW 22:27:10 36° W 22:31:08 10° NNW
Cosmos 2369 Rocket 3.4 22:29:37 24° E 22:29:37 24° E 22:33:26 10° NE
SPOT 1/Viking Rocket 4.3 22:26:12 23° SSW 22:29:10 48° W 22:34:14 10° NNW
Cosmos 1302 Rocket 4.3 22:29:30 42° SE 22:30:10 44° ESE 22:35:11 10° NNE
Gbstr 26 Del rocket 3.2 22:25:22 10° NW 22:30:28 69° NNE 22:31:42 45° E
ARGOS 3.6 22:27:48 26° SSW 22:30:40 55° W 22:35:56 10° NNW
Lacrosse 5 2.0 22:31:52 47° SE 22:32:00 48° SE 22:36:54 10° ENE
Cosmos 1025 Rocket 4.0 22:34:28 10° N 22:38:27 33° ENE 22:38:34 32° ENE
CZ-4C R/B 3.5 22:38:45 57° SSW 22:39:23 69° WSW 22:43:33 10° NNW
USA 229 DEB 4.3 22:40:26 10° NW 22:47:14 50° WSW 22:50:15 32° S
USA 229 4.3 22:40:32 10° NW 22:47:21 51° WSW 22:50:21 32° S
Cosmos 1400 Rocket 3.7 22:49:30 38° ENE 22:49:30 38° ENE 22:52:41 10° NNE
Cosmos 1300 Rocket 3.6 22:49:12 57° SSW 22:50:04 78° W 22:54:33 10° N
ASTEX 1 3.3 22:45:48 10° N 22:50:46 72° E 22:51:33 60° SSE
Iridium 4 Rocket 4.2 22:45:32 10° N 22:51:15 48° E 22:52:23 43° ESE
Cosmos 1536 4.0 22:53:09 31° ENE 22:53:09 31° ENE 22:55:51 10° NNE
Okean 1 Rocket 3.1 22:56:16 62° SW 22:56:57 77° W 23:01:26 10° N
Cosmos 1943 Rocket 4.1 22:59:13 15° E 22:59:13 15° E 23:01:06 10° ENE
Cosmos 1833 Rocket 3.8 22:54:17 10° NW 22:59:21 35° WSW 23:01:16 28° SW
SAR-Lupe-2 4.0 23:03:13 59° NNW 23:03:13 59° NNW 23:06:12 10° NNW
NOSS 3-1 (A) 4.1 22:58:12 10° NW 23:05:45 76° NE 23:09:02 40° SE
SL-8 R/B 4.3 23:04:01 10° WNW 23:08:45 53° NNE 23:10:22 36° ENE
Cosmos 1503 Rocket 4.0 23:05:23 10° NNW 23:10:39 68° ENE 23:11:14 62° ESE
Okean 1-7 Rocket 4.0 23:08:26 10° NNW 23:12:49 53° W 23:13:10 51° WSW
Cosmos 1535 Rocket 4.4 23:12:04 50° S 23:13:55 87° E 23:20:22 10° N
Cosmos 1544 Rocket 4.4 23:19:57 40° NE 23:19:57 40° NE 23:23:09 10° NNE
CZ-4B R/B 4.2 23:23:22 11° NE 23:23:22 11° NE 23:23:40 10° NE
Meteor 2-15 Rocket 4.4 23:16:04 10° N 23:22:10 65° E 23:23:08 56° ESE
Cosmos 2082 Rocket 4.2 23:21:09 10° WNW 23:24:45 17° W 23:26:48 14° SW
ATLAS 2AS CENTAUR R/B 3.7 23:18:54 10° NNW 23:26:46 48° NE 23:30:49 27° ESE
Meteor 2-14 Rocket 4.3 23:25:57 62° SSE 23:27:02 81° E 23:33:12 10° N
Meteor 2-15 4.3 23:22:30 10° N 23:28:40 84° E 23:29:39 65° SSE
H-2A R/B 4.5 23:28:18 10° NE 23:30:33 21° ENE 23:30:33 21° ENE
NOSS 3-1 (C) 4.1 23:27:18 10° NW 23:34:48 65° WSW 23:37:00 49° S
Meteor 2-4 Rocket 3.5 23:31:15 10° NNW 23:36:44 81° W 23:37:12 74° SSW
Genesis I 4.3 23:37:08 41° WNW 23:37:21 42° NW 23:41:12 10° NNE
USA 234 3.1 23:33:36 10° NE 23:40:11 87° SE 23:43:56 28° SW
Cosmos 2263 4.2 23:40:30 65° E 23:40:30 65° E 23:45:53 10° NNE
Terra 3.4 23:40:06 24° WSW 23:40:43 25° W 23:44:38 10° NW
BREEZE-M TANK 3.3 23:36:56 10° WNW 23:42:07 49° W 23:42:07 49° W
Cosmos 1354 Rocket 4.2 23:39:49 10° NNW 23:45:00 59° WSW 23:45:03 59° WSW
ISS -0.5 23:43:24 10° NW 23:45:44 18° N 23:46:46 16° NNE
H-2A R/B 4.0 23:51:51 18° WSW 23:53:10 19° W 23:56:57 10° NW
Cosmos 1315 Rocket 4.0 23:55:13 41° NNW 23:55:13 41° NNW 23:58:04 10° N
